Weather History for Galliano, LA

Change the Weather History Date:

Saturday, November 24, 2012

  Actual Average (KAXO) Record (KAXO)
Temperature  
Mean Temperature 50 °F -  
Max Temperature 62 °F 64 °F 78 °F (2001)
Min Temperature 39 °F 61 °F 51 °F (2013)
Degree Days  
Heating Degree Days 14    
Moisture  
Dew Point 42 °F    
Average Humidity 66    
Maximum Humidity 100    
Minimum Humidity 39    
Precipitation  
Precipitation 0.00 in - - ()
Sea Level Pressure  
Sea Level Pressure 30.24 in    
Wind  
Wind Speed 9 mph (North)    
Max Wind Speed 15 mph    
Max Gust Speed 21 mph    
Visibility 10 miles    
Events      
Averages and records for this station are not official NWS values.
T = Trace of Precipitation, MM = Missing Value Source: NWS Daily Summary

Daily Weather History Graph

Daily Weather History Graph

Search for Another Location

Airport:

Trip Planner

Search our weather history database for the weather conditions in past years. The results will help you decide how hot, cold, wet, or windy it might be!

Date:

Astronomy

Nov. 24, 2012 Rise Set
Actual Time 6:32 AM CST 5:02 PM CST
Civil Twilight 6:07 AM CST 5:28 PM CST
Nautical Twilight 5:38 AM CST 5:57 PM CST
Astronomical Twilight 5:09 AM CST 6:26 PM CST
Moon 2:36 PM CST (11/24) 3:02 AM CST (11/24)
Length of Visible Light 11h 21m
Length of Day
10h 29m
Waxing Gibbous, 87% of the Moon is Illuminated
Nov 24
Waxing Gibbous
Nov 28
Full
Dec 6
Last Quarter
Dec 13
New
Dec 19
First Quarter

Hourly Weather History & Observations

Time (CST) Temp. Dew Point Humidity Pressure Visibility Wind Dir Wind Speed Gust Speed Precip Events Conditions
12:15 AM 60.8 °F 60.8 °F 100% 30.22 in 10.0 mi NNW 10.4 mph - N/A   Unknown
12:35 AM 60.8 °F 59.0 °F 94% 30.23 in 10.0 mi NW 6.9 mph - N/A   Unknown
12:55 AM 60.8 °F 60.8 °F 100% 30.23 in 10.0 mi NNW 6.9 mph - N/A   Unknown
1:35 AM 60.8 °F 57.2 °F 88% 30.23 in 10.0 mi NNW 11.5 mph 18.4 mph N/A   Unknown
2:15 AM 60.8 °F 51.8 °F 72% 30.22 in 10.0 mi NNW 10.4 mph - N/A   Unknown
2:55 AM 60.8 °F 46.4 °F 59% 30.22 in 10.0 mi North 8.1 mph - N/A   Unknown
3:15 AM 60.8 °F 46.4 °F 59% 30.22 in 10.0 mi North 9.2 mph - N/A   Unknown
3:55 AM 60.8 °F 42.8 °F 52% 30.22 in 10.0 mi North 10.4 mph - N/A   Unknown
4:15 AM 59.0 °F 44.6 °F 59% 30.22 in 10.0 mi NNW 9.2 mph - N/A   Unknown
4:35 AM 59.0 °F 42.8 °F 55% 30.23 in 10.0 mi North 9.2 mph - N/A   Unknown
4:55 AM 57.2 °F 44.6 °F 63% 30.24 in 10.0 mi NNW 10.4 mph - N/A   Unknown
5:15 AM 57.2 °F 42.8 °F 59% 30.24 in 10.0 mi North 11.5 mph - N/A   Unknown
5:35 AM 57.2 °F 42.8 °F 59% 30.25 in 10.0 mi NNW 12.7 mph 20.7 mph N/A   Unknown
5:55 AM 55.4 °F 42.8 °F 63% 30.25 in 10.0 mi NNW 10.4 mph - N/A   Unknown
6:15 AM 55.4 °F 42.8 °F 63% 30.26 in 10.0 mi North 12.7 mph - N/A   Unknown
6:35 AM 55.4 °F 42.8 °F 63% 30.27 in 10.0 mi North - - N/A   Unknown
6:55 AM 53.6 °F 42.8 °F 67% 30.27 in 10.0 mi North 10.4 mph - N/A   Unknown
7:15 AM 55.4 °F 42.8 °F 63% 30.28 in 10.0 mi North 10.4 mph - N/A   Unknown
7:35 AM 53.6 °F 42.8 °F 67% 30.29 in 10.0 mi NNW 10.4 mph - N/A   Unknown
7:55 AM 53.6 °F 42.8 °F 67% 30.29 in 10.0 mi North 12.7 mph 18.4 mph N/A   Unknown
8:15 AM 55.4 °F 42.8 °F 63% 30.30 in 10.0 mi North 15.0 mph 18.4 mph N/A   Unknown
8:35 AM 53.6 °F 42.8 °F 67% 30.30 in 10.0 mi North 13.8 mph - N/A   Unknown
8:55 AM 55.4 °F 42.8 °F 63% 30.30 in 10.0 mi North 13.8 mph 18.4 mph N/A   Unknown
9:15 AM 55.4 °F 42.8 °F 63% 30.31 in 10.0 mi North 13.8 mph - N/A   Unknown
9:35 AM 55.4 °F 42.8 °F 63% 30.31 in 10.0 mi North 12.7 mph - N/A   Unknown
9:55 AM 57.2 °F 42.8 °F 59% 30.31 in 10.0 mi North 12.7 mph 17.3 mph N/A   Unknown
10:15 AM 57.2 °F 42.8 °F 59% 30.30 in 10.0 mi North 12.7 mph 16.1 mph N/A   Unknown
10:35 AM 59.0 °F 42.8 °F 55% 30.30 in 10.0 mi North 10.4 mph - N/A   Unknown
10:55 AM 59.0 °F 41.0 °F 51% 30.29 in 10.0 mi North 9.2 mph - N/A   Unknown
11:15 AM 59.0 °F 41.0 °F 51% 30.29 in 10.0 mi North 10.4 mph - N/A   Unknown
11:35 AM 59.0 °F 42.8 °F 55% 30.28 in 10.0 mi North 9.2 mph - N/A   Unknown
11:55 AM 60.8 °F 41.0 °F 48% 30.26 in 10.0 mi North 8.1 mph - N/A   Unknown
12:15 PM 60.8 °F 42.8 °F 52% 30.25 in 10.0 mi North 8.1 mph - N/A   Unknown
12:35 PM 60.8 °F 42.8 °F 52% 30.24 in 10.0 mi North 9.2 mph - N/A   Unknown
12:55 PM 62.6 °F 42.8 °F 48% 30.23 in 10.0 mi NNE 10.4 mph - N/A   Unknown
1:15 PM 62.6 °F 41.0 °F 45% 30.22 in 10.0 mi NNW 11.5 mph 17.3 mph N/A   Unknown
1:35 PM 62.6 °F 37.4 °F 39% 30.21 in 10.0 mi North 10.4 mph - N/A   Unknown
1:55 PM 62.6 °F 37.4 °F 39% 30.21 in 10.0 mi NNW 10.4 mph 16.1 mph N/A   Clear
2:15 PM 62.6 °F 39.2 °F 42% 30.20 in 10.0 mi NNW 12.7 mph - N/A   Clear
2:35 PM 62.6 °F 39.2 °F 42% 30.20 in 10.0 mi NNW 10.4 mph - N/A   Unknown
2:55 PM 62.6 °F 39.2 °F 42% 30.20 in 10.0 mi NNW 11.5 mph 16.1 mph N/A   Unknown
3:15 PM 60.8 °F 37.4 °F 42% 30.20 in 10.0 mi NNW 10.4 mph - N/A   Unknown
3:35 PM 60.8 °F 39.2 °F 45% 30.20 in 10.0 mi North 8.1 mph - N/A   Unknown
3:55 PM 60.8 °F 37.4 °F 42% 30.19 in 10.0 mi North 10.4 mph - N/A   Unknown
4:15 PM 59.0 °F 37.4 °F 45% 30.20 in 10.0 mi North 8.1 mph - N/A   Unknown
4:55 PM 55.4 °F 41.0 °F 58% 30.19 in 10.0 mi North 9.2 mph - N/A   Unknown
5:15 PM 53.6 °F 41.0 °F 62% 30.19 in 10.0 mi NNW 8.1 mph - N/A   Unknown
5:35 PM 51.8 °F 41.0 °F 67% 30.20 in 10.0 mi North 6.9 mph - N/A   Unknown
5:55 PM 51.8 °F 41.0 °F 67% 30.20 in 10.0 mi North 6.9 mph - N/A   Unknown
6:15 PM 51.8 °F 41.0 °F 67% 30.21 in 10.0 mi NNW 6.9 mph - N/A   Unknown
6:35 PM 51.8 °F 41.0 °F 67% 30.21 in 10.0 mi North 6.9 mph - N/A   Unknown
6:55 PM 50.0 °F 41.0 °F 71% 30.21 in 10.0 mi North 5.8 mph - N/A   Unknown
7:15 PM 50.0 °F 41.0 °F 71% 30.22 in 10.0 mi North 5.8 mph - N/A   Unknown
7:35 PM 50.0 °F 41.0 °F 71% 30.22 in 10.0 mi Calm Calm - N/A   Unknown
7:55 PM 48.2 °F 41.0 °F 76% 30.22 in 10.0 mi Calm Calm - N/A   Unknown
8:15 PM 44.6 °F 39.2 °F 81% 30.22 in 10.0 mi Calm Calm - N/A   Unknown
8:35 PM 44.6 °F 41.0 °F 87% 30.22 in 10.0 mi North - - N/A   Unknown
8:55 PM 42.8 °F 41.0 °F 93% 30.22 in 10.0 mi Calm Calm - N/A   Unknown
9:15 PM 41.0 °F 39.2 °F 93% 30.22 in 10.0 mi Calm Calm - N/A   Unknown
9:35 PM 41.0 °F 41.0 °F 100% 30.22 in 10.0 mi Calm Calm - N/A   Unknown
9:55 PM 41.0 °F 39.2 °F 93% 30.21 in 10.0 mi Calm Calm - N/A   Unknown
10:15 PM 41.0 °F 41.0 °F 100% 30.21 in 10.0 mi Calm Calm - N/A   Unknown
10:35 PM 41.0 °F 39.2 °F 93% 30.21 in 10.0 mi Calm Calm - N/A   Unknown
10:55 PM 41.0 °F 39.2 °F 93% 30.20 in 10.0 mi Calm Calm - N/A   Unknown
11:15 PM 41.0 °F 37.4 °F 87% 30.20 in 10.0 mi Calm Calm - N/A   Unknown
11:35 PM 39.2 °F 37.4 °F 93% 30.20 in 10.0 mi Calm Calm - N/A   Unknown
11:55 PM 39.2 °F 37.4 °F 93% 30.19 in 10.0 mi Calm Calm - N/A   Unknown